This is the latest recevied weather packets stored in our database for station/object KC0SIQ-13. If no packets are shown the sender has not sent any weather packets the latest 10 day(s).
| Time | Temp. | Humidity | Pressure | Rain* | Wind** | Luminosity | Snow |
|---|---|---|---|---|---|---|---|
| 1777872698 | 11.67° C | 44% | 1009.4 hPa | 0 mm | - | 0 W/m² | - |
| 1777872395 | 11.67° C | 42% | 1009.2 hPa | 0 mm | - | 0 W/m² | - |
| 1777872093 | 12.22° C | 42% | 1009.2 hPa | 0 mm | - | 0 W/m² | - |
| 1777871790 | 12.22° C | 41% | 1009.5 hPa | 0 mm | - | 0 W/m² | - |
| 1777871486 | 12.22° C | 41% | 1009.2 hPa | 0 mm | - | 0 W/m² | - |
| 1777871183 | 12.22° C | 40% | 1009.6 hPa | 0 mm | - | 0 W/m² | - |
| 1777870880 | 12.78° C | 40% | 1009.4 hPa | 0 mm | - | 0 W/m² | - |
| 1777870578 | 12.78° C | 39% | 1009.5 hPa | 0 mm | - | 0 W/m² | - |
| 1777870272 | 13.33° C | 39% | 1009.4 hPa | 0 mm | - | 0 W/m² | - |
| 1777869970 | 13.33° C | 38% | 1009.2 hPa | 0 mm | - | 0 W/m² | - |
| 1777869667 | 13.33° C | 38% | 1009.6 hPa | 0 mm | - | 0 W/m² | - |
| 1777869364 | 13.89° C | 38% | 1009.4 hPa | 0 mm | - | 0 W/m² | - |
| 1777869061 | 14.44° C | 37% | 1009.5 hPa | 0 mm | - | 0 W/m² | - |
| 1777868758 | 14.44° C | 35% | 1009.5 hPa | 0 mm | - | 0 W/m² | - |
| 1777868455 | 14.44° C | 36% | 1009.8 hPa | 0 mm | - | 0 W/m² | - |
| 1777868151 | 15° C | 35% | 1009.5 hPa | 0 mm | - | 0 W/m² | - |
| 1777867847 | 15° C | 33% | 1009.5 hPa | 0 mm | - | 0 W/m² | - |
| 1777867545 | 15.56° C | 32% | 1009.5 hPa | 0 mm | - | 0 W/m² | - |
| 1777867241 | 15.56° C | 32% | 1009.4 hPa | 0 mm | - | 0 W/m² | - |
| 1777866938 | 15.56° C | 32% | 1009.6 hPa | 0 mm | - | 0 W/m² | - |
| 1777866634 | 15.56° C | 32% | 1009.4 hPa | 0 mm | - | 0 W/m² | - |
| 1777866332 | 15.56° C | 30% | 1009.6 hPa | 0 mm | - | 0 W/m² | - |
| 1777866029 | 15.56° C | 31% | 1009.6 hPa | 0 mm | - | 0 W/m² | - |
| 1777865727 | 15° C | 33% | 1009.1 hPa | 0 mm | - | 0 W/m² | - |
| 1777865424 | 15° C | 34% | 1008.9 hPa | 0 mm | - | 0 W/m² | - |
* Rain latest hour (hover to see other rain measurements)
** Current wind speed in m/s (hover to see current wind gust speed)